星链-1529 (STARLINK-1529 )

导读 | 星芒AI

STARLINK-1529 是 SpaceX Starlink 卫星互联网项目中的一颗低轨卫星,属于第 15 批部署的 Starlink 卫星群。该卫星由 Falcon 9 火箭发射入轨,旨在为全球用户提供高速互联网服务。它运行在约 550 公里的轨道高度,配备先进通信设备,支持宽带连接。Starlink 项目致力于改善偏远地区网络覆盖,推动全球数字包容。STARLINK-1529 作为其中一员,为实现这一目标贡献力量。

基本信息
目录编号:
46067
目录名称:
STARLINK-1529
国际标识:
2020-055AS
轨道中心:
EARTH
卫星名称:
星链-1529
卫星全名:
星链-1529 (STARLINK-1529 )
卫星状态:
已陨落 最后检测时间 2024-04-22
发射日期:
2020-08-07 UTC
国别 :
美国 (US)
星等 :
--
轨道信息
数据来源 国际轨道数据
星历时间: 2024-04-22T19:58:37+0800
轨道信息已过期559天
半长轴: 6547.155km
偏心率: 0.000927
轨道倾角: 53.026°
近地点辐角 346.770°
升交点赤经 213.473°
平近点角 14.442°
近地点: 162.95km
远地点: 175.09km
周期: 87.870分钟
每日圈数: 16.38792
详细信息
固有亮度:
5
最大亮度:
2.5
卫星平台:
Starlink V1.0
覆盖范围:
全球
运营商:
太空探索技术公司
运营商所在国:
美国
制造商(研发单位):
太空探索技术公司
制造商所在国:
美国
使用方式:
暂无
卫星简介
星链(Starlink)计划是由太空探索技术公司(SpaceX)提出的一个巨型低轨卫星互联网星座项目,计划在2019年至2024年间在太空搭建由约1.2万颗卫星组成的“星链”网络,其中1584颗将部署在地球上空550千米处的近地轨道,并从2020年开始工作。该卫星已陨落。